Tracking 19396 objects as of 13-Dec-2018
HD Live streaming from Space Station
objects crossing your sky now

MOZHAYETS 4

Track MOZHAYETS 4 now!
10-day predictions
MOZHAYETS 4 is classified as:


NORAD ID: 27939
Int'l Code: 2003-042A
Perigee: 670.4 km
Apogee: 686.8 km
Inclination: 98.0 °
Period: 98.2 minutes
Semi major axis: 7049 km
RCS: 0.7646 m2 (medium)
Launch date: September 27, 2003
Source: Commonwealth of Independent States (former USSR) (CIS)
Launch site: PLESETSK MISSILE AND SPACE COMPLEX (PKMTR)

Uplink (MHz):
Downlink (MHz): 432.098/435.352
Beacon (MHz):
Mode:
Call sign:
Status: Active

aabbcc
Your satellite tracking list
Your tracking list is empty




NASA's NSSDC Master Catalog

Two Line Element Set (TLE):
1 27939U 03042A   18346.90197782  .00000138  00000-0  33348-4 0  9991
2 27939  98.0144 121.7075 0011643 305.3339  54.6775 14.66739482813019
Source of the keplerian elements: Caltech